Other Public Products
Issued by NWS Grand Forks, ND

Home | Current Version | Previous Version | Graphics & Text | Print | Product List | Glossary On
Versions: 1 2 3 4 5 6 7 8 9 10 11 12 13 14 15 16 17 18 19 20 21 22 23 24 25 26 27 28 29 30 31 32 33 34 35 36 37 38 39 40 41 42 43 44 45 46 47 48 49 50
000
FPUS83 KFGF 291510
OPUFGF
PRAIRIE TO PINES WEATHER ROUNDUP
NATIONAL WEATHER SERVICE EASTERN NORTH DAKOTA/GRAND FORKS ND
1000 AM CDT THU SEP 29 2016

 **SATELLITE DATA USED TO AUGMENT SKY COVER AT AUTOMATED STATIONS**
 *****  WEATHER ACROSS EASTERN NORTH DAKOTA  *****

CITY           SKY/WX    TMP DP  RH WIND       PRES   REMARKS
GRAND FORKS    CLOUDY    54  47  77 S9        30.48R
GRAND FORKS AF MOSUNNY   54  48  82 S6        30.48R
GRAND CITY NWS   N/A     54 N/A N/A S7          N/A
BUXTON         NOT AVBL
DEVILS LAKE    SUNNY     53  48  83 SE10      30.45R
FARGO          CLOUDY    57  47  69 SE3       30.49S
WAHPETON ARPT  CLOUDY    52  45  76 E3        30.50S
$$

 *****  WEATHER ACROSS CENTRAL AND WESTERN NORTH DAKOTA  *****

CITY           SKY/WX    TMP DP  RH WIND       PRES   REMARKS
JAMESTOWN      SUNNY     50  47  89 S8        30.45R
BISMARCK       SUNNY     51  47  86 SE9       30.40S
MINOT          SUNNY     54  47  77 SE10      30.34S
MINOT AFB      SUNNY     52  47  83 S14       30.33S
GARRISON         N/A     53  48  83 S9        30.35S
WILLISTON      SUNNY     57  44  62 SE9       30.26S
DICKINSON      SUNNY     53  44  71 SE13      30.28F
HETTINGER      SUNNY     53  44  71 SE13      30.32F
$$

 *****  OTHER OBSERVATIONS NORTHEAST NORTH DAKOTA  *****

CITY           SKY/WX    TMP DP  RH WIND       PRES   REMARKS
WALHALLA       FAIR      52  48  87 SE9       30.46S
LANGDON        FAIR      54  52  94 S10       30.44F
CAVALIER       FAIR      52  48  87 S8        30.47S
GRAFTON        FAIR      54  52  94 S8        30.50R
CANDO          FAIR      54  54 100 S9        30.45S
FORT TOTTEN      N/A     53  51  93 S7        29.95S
ROLLA          FAIR      50  48  93 S12G17    30.42S
RUGBY          FAIR      52  48  87 SE14      30.40S
 ***** THE ABOVE OBSERVATIONS ARE NON NWS ARE NOT QUALITY
        CONTROLLED AND MAY MIS-REPORT RAIN FOR SNOW...
$$

 *****  OTHER OBSERVATIONS SOUTHEAST NORTH DAKOTA *****

CITY           SKY/WX    TMP DP  RH WIND       PRES   REMARKS
COOPERSTOWN    FAIR      54  48  82 SE8       30.47R
VALLEY CITY    FAIR      52  52 100 S8        30.49S
OAKES          NOT AVBL
GWINNER        FAIR      52  48  87 SE3       30.49R
SHEYENNE NWR     N/A     50  49  98 SE2       29.95
BUFFALO        NOT AVBL
WYNDMERE       NOT AVBL
 ***** THE ABOVE OBSERVATIONS ARE NON NWS ARE NOT QUALITY
       CONTROLLED AND MAY MIS-REPORT RAIN FOR SNOW...
$$

  *****  WEATHER ACROSS NORTHERN MINNESOTA  *****

CITY           SKY/WX    TMP DP  RH WIND       PRES   REMARKS
FLAG ISLAND    CLOUDY    55  46  71 SE8       30.49S
WARROAD        CLOUDY    55  50  82 SE5       30.51S
ROSEAU         CLOUDY    57  48  72 SE7       30.50S
HALLOCK        SUNNY     57  52  82 S9        30.48R
THF RVR FALLS  CLOUDY    56  47  71 SE8       30.50S
HALSTAD          N/A     55  48  77 SE6         N/A
FOSSTON        CLOUDY    54  52  94 SE5       30.51S
BAUDETTE       CLOUDY    54  49  83 SE3       30.51S
WASKISH        CLOUDY    54  52  94 SE3       30.51S
CROOKSTON      CLOUDY    55  48  76 S7        30.50S
$$
  *****  WEATHER ACROSS CENTRAL AND WEST MINNESOTA  *****

CITY           SKY/WX    TMP DP  RH WIND       PRES   REMARKS
BEMIDJI        CLOUDY    55  50  82 CALM      30.51R
PARK RAPIDS    CLOUDY    56  48  74 CALM      30.51R
WADENA         CLOUDY    54  48  82 CALM      30.51R
DETROIT LAKES  CLOUDY    52  46  82 CALM      30.51S
MOORHEAD       CLOUDY    52  48  87 SE3       30.51R
FERGUS FALLS   CLOUDY    55  48  76 SE3       30.52S
ELBOW LAKE     CLOUDY    55  48  79 SE3       30.51R
MORRIS MN      SUNNY     61  48  63 E6        30.49R
STAPLES        CLOUDY    54  48  82 CALM      30.51R
WHEATON        NOT AVBL
$$
  *****  WEATHER ELSEWHERE ACROSS MINNESOTA  *****

CITY           SKY/WX    TMP DP  RH WIND       PRES   REMARKS
DULUTH         CLOUDY    56  50  80 E8        30.51S
INTRNTL FALLS  CLOUDY    55  50  83 E5        30.52S
ELY            CLOUDY    52  46  82 CALM      30.53R
CLOQUET        CLOUDY    55  48  76 E7        30.51R
BRAINERD       CLOUDY    55  51  86 CALM      30.51R
HIBBING        CLOUDY    53  50  89 E5        30.52R
ALEXANDRIA     CLOUDY    56  49  77 E6        30.52R
SAINT CLOUD    SUNNY     57  50  77 E9        30.50R
MINNEAPOLIS    MOSUNNY   56  49  77 E12       30.48R
$$

  *****  WEATHER ACROSS SOUTH DAKOTA  *****

CITY           SKY/WX    TMP DP  RH WIND       PRES   REMARKS
SIOUX FALLS    SUNNY     54  49  83 CALM      30.48R
BROOKINGS      SUNNY     52  48  86 CALM      30.48R
WATERTOWN      SUNNY     55  48  77 SE6       30.48R
HURON          SUNNY     53  47  79 S9        30.47R
SISSETON         N/A     52  48  86 S3        30.49R
ABERDEEN       SUNNY     53  46  77 S12       30.47S
MITCHELL       SUNNY     52  46  80 SE5       30.48S
PIERRE         SUNNY     53  45  74 SE13      30.40R
MOBRIDGE       SUNNY     55  46  71 S13       30.38S
RAPID CITY     SUNNY     52  39  61 SE10      30.31S
$$

  *****  SOME WEATHER IN NEARBY STATES *****

CITY           SKY/WX    TMP DP  RH WIND       PRES   REMARKS
GLASGOW MT     SUNNY     60  43  53 SE13      30.12F
GREAT FALLS MT MOSUNNY   52  47  83 CALM      30.10S
CHEYENNE WY    CLOUDY    54  41  61 SW3       30.39R
SCOTTSBLUFF NE SUNNY     54  40  59 E14       30.35S
OMAHA NE       MOSUNNY   55  49  80 N8        30.45R
DES MOINES IA  MOSUNNY   61  52  72 NE9       30.39R
DAVENPORT IA   SUNNY     59  52  77 N15       30.28R
CHICAGO IL     CLOUDY    63  57  81 N20G30    30.16R
EAU CLAIRE WI  PTSUNNY   54  49  83 NE9       30.45R
LA CROSSE WI   SUNNY     59  51  75 N9        30.42R
$$

  *****  SOME NATIONAL WEATHER *****

CITY           SKY/WX    TMP DP  RH WIND       PRES   REMARKS
LA GUARDIA NY  CLOUDY    64  54  69 E18G26    30.36R
RALEIGH NC     CLOUDY    70  67  90 CALM      30.05S
ATLANTA GA     SUNNY     69  54  58 NW8       30.01R
NEW ORLEANS LA MOSUNNY   82  64  54 NW7       30.07R
OKLAHOMA CITY  MOSUNNY   61  49  64 N10       30.38R
ALBUQUERQUE NM PTSUNNY   70  40  33 E12       30.40R
SALT LAKE CITY MOSUNNY   65  51  60 SE7       30.23R
LOS ANGELES CA SUNNY     75  60  59 CALM      30.01R
BOISE ID       MOSUNNY   61  41  47 N3        30.00R
SEATTLE WA     MOCLDY    48  43  82 NW3       30.08R
$$

*** WEATHER ACROSS MANITOBA...SASKATCHEWAN AND ONTARIO ***
                ***ONTARIO***

CITY           SKY/WX    TMP DP  RH WIND       PRES   REMARKS
GERALDTON      CLOUDY    54  48  82 E6        30.54S
THUNDER BAY    MOSUNNY   57  50  77 E3        30.53R
SIOUX LOOKOUT  CLOUDY    54  46  76 SE3       30.53S
TORONTO        LGT RAIN  57  55  94 NE10      30.31R FOG
BIG TROUT LK   MOSUNNY   48  46  93 SW5       30.50S
PICKLE LAKE    CLOUDY    52  50  93 CALM      30.52R
DRYDEN         CLOUDY    54  43  66 SE6       30.52S
KENORA         CLOUDY    54  46  76 S8        30.51S
$$
                *** MANITOBA***

CITY           SKY/WX    TMP DP  RH WIND       PRES   REMARKS
BRANDON        MOSUNNY   52  46  82 SE6       30.40S
DAUPHIN        PTSUNNY   48  46  93 E3        30.35F
ISLAND LAKE    PTSUNNY   50  48  93 SE3       30.46R
PILOT MOUND      N/A     54  48  82 S14         N/A
THE PAS        CLOUDY    50  46  87 SE12      30.36S
THOMPSON       PTSUNNY   41  39  93 CALM      30.42S
WINNIPEG       MOSUNNY   55  48  76 S10       30.47R
LYNN LAKE      CLOUDY    45  36  70 S7        30.33F
CHURCHILL      MOSUNNY   45  36  70 W9        30.36R
GILLAM         MOSUNNY   46  37  71 S3        30.43S
$$
                ***SASKATCHEWAN***

CITY           SKY/WX    TMP DP  RH WIND       PRES   REMARKS
ESTEVAN        MOSUNNY   54  46  76 E10       30.27S
KINDERSLEY     MOSUNNY   46  43  87 NE5       30.16R
LLOYDMINSTER   PTSUNNY   43  39  87 NE3       30.21S
PRINCE ALBERT  MOSUNNY   52  45  76 E14       30.22F
REGINA         MOSUNNY   55  43  62 SE17      30.19F
YORKTON        SUNNY     54  46  76 SE18      30.27S  C1F1C2F2C3F3C4F4C5F5C6F6C7F7C8F8C9F9CaFaCbFbCcFcCdFdCe!


USA.gov is the U.S. government's official web portal to all federal, state and local government web resources and services.